EW3349 Weather Reports


Display with metric or nautical units.
time (UTC)temp
F
wind
direction
speed
MPH
gust
MPH
rain 1hr
in
rain 24hr
in
rain mn
in
humidity
%
barometer
mb
20260504200807 76 46 4.0 12.0 0.00 0.00 0.00 31 1002.6
20260504195755 76 321 4.0 10.0 0.00 0.00 0.00 31 1002.7
20260504194809 76 355 1.0 8.0 0.00 0.00 0.00 35 1002.9
20260504193753 75 355 3.0 14.0 0.00 0.00 0.00 33 1003.1
20260504192736 75 239 4.0 14.0 0.00 0.00 0.00 33 1003.3
20260504191743 75 161 3.0 12.0 0.00 0.00 0.00 36 1003.3
20260504190728 74 3 3.0 12.0 0.00 0.00 0.00 36 1003.4
20260504185734 73 216 4.0 10.0 0.00 0.00 0.00 37 1003.6
20260504184750 73 30 3.0 13.0 0.00 0.00 0.00 37 1003.6
20260504183808 74 99 3.0 15.0 0.00 0.00 0.00 36 1003.8
20260504182828 73 291 4.0 15.0 0.00 0.00 0.00 37 1003.9
20260504181837 73 326 5.0 15.0 0.00 0.00 0.00 40 1003.9
20260504180802 72 29 3.0 10.0 0.00 0.00 0.00 39 1004.0
20260504175742 72 18 4.0 10.0 0.00 0.00 0.00 43 1004.1
20260504173622 71 336 4.0 12.0 0.00 0.00 0.00 41 1004.3
20260504172636 71 98 4.0 11.0 0.00 0.00 0.00 43 1004.3
20260504171653 70 155 4.0 11.0 0.00 0.00 0.00 42 1004.5
20260504150441 64 354 4.0 12.0 0.00 0.00 0.00 46 1005.5
20260504140226 60 122 4.0 10.0 0.00 0.00 0.00 49 1005.5
20260504130201 57 59 3.0 9.0 0.00 0.00 0.00 51 1006.1
20260504090135 50 253 1.0 8.0 0.00 0.00 0.00 55 1006.7
20260504050441 51 357 0.0 5.0 0.00 0.00 0.00 56 1008.2
20260504045455 51 144 1.0 5.0 0.00 0.00 0.00 56 1008.2
20260504044451 52 8 0.0 5.0 0.00 0.00 0.00 55 1008.2
20260504043506 52 153 1.0 6.0 0.00 0.00 0.00 54 1008.3
20260504042441 52 188 1.0 6.0 0.00 0.00 0.00 54 1008.3
20260504041413 53 151 0.0 5.0 0.00 0.00 0.00 53 1008.3
20260504040411 53 120 1.0 6.0 0.00 0.00 0.00 53 1008.3
20260504035356 53 217 1.0 6.0 0.00 0.00 0.00 53 1008.2
20260504034353 53 170 1.0 5.0 0.00 0.00 0.00 53 1008.2
20260504032135 54 190 0.0 6.0 0.00 0.00 0.00 53 1008.2
20260504031124 54 23 1.0 8.0 0.00 0.00 0.00 52 1008.2
20260504023922 54 51 1.0 5.0 0.00 0.00 0.00 53 1008.4
20260504022937 54 205 0.0 5.0 0.00 0.00 0.00 52 1008.6
20260504021925 53 13 0.0 5.0 0.00 0.00 0.00 53 1008.7
20260504020928 53 223 0.0 4.0 0.00 0.00 0.00 54 1008.6
20260504015943 53 30 0.0 4.0 0.00 0.00 0.00 55 1008.8
20260504014933 52 270 0.0 1.0 0.00 0.00 0.00 57 1008.7
20260504013926 52 105 0.0 0.0 0.00 0.00 0.00 57 1008.6
20260504011735 53 139 1.0 8.0 0.00 0.00 0.00 56 1009.0
20260504010751 53 300 1.0 8.0 0.00 0.00 0.00 55 1008.9
20260504005802 53 342 1.0 8.0 0.00 0.00 0.00 56 1008.8
20260504004746 53 154 1.0 11.0 0.00 0.00 0.00 56 1009.0
20260504003716 53 338 4.0 11.0 0.00 0.00 0.00 56 1009.2
20260504002654 53 351 1.0 8.0 0.00 0.00 0.00 56 1009.4
20260504001626 53 356 3.0 11.0 0.00 0.00 0.00 54 1009.2
20260504000554 54 356 4.0 11.0 0.00 0.00 0.00 53 1009.2
20260503235600 54 338 1.0 10.0 0.00 0.00 0.00 53 1009.0
20260503234556 54 16 3.0 13.0 0.00 0.00 0.00 51 1008.9
20260503233547 54 348 6.0 17.0 0.00 0.00 0.00 51 1009.0
20260503232559 55 309 4.0 17.0 0.00 0.00 0.00 49 1008.9
20260503231559 55 335 4.0 11.0 0.00 0.00 0.00 49 1008.8
20260503230533 55 92 5.0 17.0 0.00 0.00 0.00 47 1008.6
20260503225530 55 3 5.0 17.0 0.00 0.00 0.00 45 1008.5
20260503224505 56 356 3.0 11.0 0.00 0.00 0.00 43 1008.6
20260503223521 56 304 3.0 12.0 0.00 0.00 0.00 41 1008.5
20260503222451 56 2 3.0 12.0 0.00 0.00 0.00 42 1008.3
20260503221512 56 344 0.0 6.0 0.00 0.00 0.00 44 1008.5
20260503220514 56 357 1.0 8.0 0.00 0.00 0.00 44 1008.6
20260503214349 57 338 3.0 6.0 0.00 0.00 0.00 42 1008.8
20260503213334 57 252 1.0 5.0 0.00 0.00 0.00 42 1008.5
20260503212346 57 336 3.0 14.0 0.00 0.00 0.00 40 1008.3
20260503211401 58 2 4.0 14.0 0.00 0.00 0.00 38 1008.4
20260503210353 59 11 3.0 9.0 0.00 0.00 0.00 39 1008.5
20260503205405 59 37 3.0 7.0 0.00 0.00 0.00 38 1008.5
20260503204402 59 134 1.0 5.0 0.00 0.00 0.00 38 1008.6
20260503203408 59 303 1.0 9.0 0.00 0.00 0.00 39 1008.7